Weather History for KAXS - March, 2013

Change the Weather History Date:

Friday, March 29, 2013

  Actual Average (KLTS) Record (KLTS)
Temperature  
Mean Temperature 65 °F -  
Max Temperature 78 °F 67 °F 89 °F (1997)
Min Temperature 52 °F 44 °F 26 °F (2009)
Growing Degree Days 15 (Base 50)    
Moisture  
Dew Point 54 °F    
Average Humidity 71    
Maximum Humidity 92    
Minimum Humidity 43    
Precipitation  
Precipitation 0.00 in - - ()
Sea Level Pressure  
Sea Level Pressure 30.04 in    
Wind  
Wind Speed 11 mph (SE)    
Max Wind Speed 21 mph    
Max Gust Speed 36 mph    
Visibility 10 miles    
Events Rain    
Averages and records for this station are not official NWS values.
T = Trace of Precipitation, MM = Missing Value Source: NWS Daily Summary

Daily Weather History Graph

Daily Weather History Graph

Search for Another Location

Airport or City:

Trip Planner

Search our weather history database for the weather conditions in past years. The results will help you decide how hot, cold, wet, or windy it might be!

Date:

Astronomy

Mar. 29, 2013 Rise Set
Actual Time 7:28 AM CDT 7:56 PM CDT
Civil Twilight 7:02 AM CDT 8:21 PM CDT
Nautical Twilight 6:33 AM CDT 8:51 PM CDT
Astronomical Twilight 6:02 AM CDT 9:21 PM CDT
Moon 10:49 PM CDT (3/29) 8:45 AM CDT (3/29)
Length of Visible Light 13h 18m
Length of Day
12h 28m
Waning Gibbous, 93% of the Moon is Illuminated
Mar 29
Waning Gibbous
Apr 2
Last Quarter
Apr 10
New
Apr 18
First Quarter
Apr 25
Full

Hourly Weather History & Observations

Time (CDT) Temp. Dew Point Humidity Pressure Visibility Wind Dir Wind Speed Gust Speed Precip Events Conditions
12:15 AM 59.9 °F 52.0 °F 75% 30.06 in 10.0 mi ESE 11.5 mph - N/A   Clear
12:35 AM 59.4 °F 52.2 °F 77% 30.06 in 10.0 mi ESE 12.7 mph - N/A   Clear
12:55 AM 59.4 °F 52.2 °F 77% 30.06 in 10.0 mi ESE 11.5 mph - N/A   Clear
1:15 AM 59.2 °F 52.2 °F 78% 30.06 in 10.0 mi ESE 10.4 mph - N/A   Clear
1:35 AM 58.3 °F 52.0 °F 80% 30.06 in 10.0 mi ESE 9.2 mph - N/A   Clear
1:55 AM 58.1 °F 52.2 °F 81% 30.06 in 10.0 mi ESE 9.2 mph - N/A   Clear
2:15 AM 56.8 °F 52.0 °F 84% 30.06 in 10.0 mi ESE 10.4 mph - N/A   Clear
2:35 AM 56.3 °F 51.8 °F 85% 30.06 in 10.0 mi ESE 10.4 mph - N/A   Clear
2:55 AM 56.3 °F 51.8 °F 85% 30.06 in 10.0 mi ESE 10.4 mph - N/A   Clear
3:15 AM 56.1 °F 51.8 °F 85% 30.06 in 10.0 mi ESE 10.4 mph - N/A   Clear
3:35 AM 55.6 °F 51.6 °F 87% 30.05 in 10.0 mi ESE 9.2 mph - N/A   Clear
3:55 AM 55.4 °F 51.8 °F 88% 30.06 in 10.0 mi ESE 10.4 mph - N/A   Clear
4:15 AM 54.1 °F 50.9 °F 89% 30.05 in 10.0 mi East 9.2 mph - N/A   Clear
4:55 AM 52.9 °F 50.2 °F 91% 30.05 in 7.0 mi ESE 10.4 mph - N/A   Clear
5:15 AM 53.1 °F 50.4 °F 91% 30.05 in 7.0 mi ESE 9.2 mph - N/A   Clear
5:35 AM 52.9 °F 50.7 °F 92% 30.05 in 7.0 mi ESE 10.4 mph - N/A   Clear
5:55 AM 53.6 °F 50.9 °F 91% 30.05 in 7.0 mi ESE 10.4 mph - N/A   Clear
6:15 AM 53.4 °F 50.9 °F 91% 30.06 in 7.0 mi ESE 9.2 mph - N/A   Clear
6:35 AM 54.0 °F 51.4 °F 91% 30.06 in 7.0 mi SE 9.2 mph - N/A   Clear
6:55 AM 54.5 °F 52.0 °F 91% 30.06 in 10.0 mi SE 10.4 mph - N/A   Clear
7:15 AM 54.5 °F 51.8 °F 91% 30.07 in 7.0 mi SE 9.2 mph - N/A   Clear
7:35 AM 54.7 °F 52.2 °F 91% 30.07 in 10.0 mi SE 10.4 mph - N/A   Clear
7:55 AM 54.7 °F 52.3 °F 92% 30.07 in 7.0 mi SE 9.2 mph - N/A   Clear
8:15 AM 55.6 °F 53.1 °F 91% 30.08 in 10.0 mi SSE 10.4 mph - N/A   Clear
8:35 AM 57.6 °F 54.5 °F 90% 30.09 in 10.0 mi SSE 10.4 mph - N/A   Clear
8:55 AM 59.2 °F 55.0 °F 86% 30.09 in 10.0 mi SSE 11.5 mph - N/A   Clear
9:15 AM 60.4 °F 55.6 °F 84% 30.09 in 10.0 mi SSE 12.7 mph - N/A   Clear
9:35 AM 63.0 °F 56.3 °F 79% 30.10 in 10.0 mi South 12.7 mph - N/A   Clear
9:55 AM 64.4 °F 55.9 °F 74% 30.09 in 10.0 mi South 15.0 mph - N/A   Clear
10:15 AM 66.0 °F 56.3 °F 71% 30.09 in 10.0 mi South 16.1 mph - N/A   Clear
10:35 AM 67.3 °F 56.3 °F 68% 30.09 in 10.0 mi South 15.0 mph - N/A   Clear
10:55 AM 68.2 °F 55.9 °F 65% 30.09 in 10.0 mi South 16.1 mph - N/A   Clear
11:15 AM 68.5 °F 55.9 °F 64% 30.09 in 10.0 mi South 15.0 mph - N/A   Clear
11:35 AM 70.5 °F 56.5 °F 61% 30.08 in 10.0 mi South 15.0 mph - N/A   Clear
11:55 AM 71.4 °F 56.1 °F 58% 30.08 in 10.0 mi SSW 12.7 mph - N/A   Clear
12:15 PM 72.1 °F 55.8 °F 56% 30.07 in 10.0 mi South 13.8 mph - N/A   Clear
12:35 PM 72.7 °F 55.8 °F 55% 30.07 in 10.0 mi SSW 12.7 mph - N/A   Clear
12:55 PM 73.0 °F 55.8 °F 55% 30.07 in 10.0 mi SW 17.3 mph 21.9 mph N/A   Clear
1:15 PM 73.9 °F 55.9 °F 53% 30.07 in 10.0 mi SSW 15.0 mph 19.6 mph N/A   Scattered Clouds
1:35 PM 72.3 °F 55.9 °F 56% 30.06 in 10.0 mi South 10.4 mph 19.6 mph N/A   Scattered Clouds
1:55 PM 71.8 °F 55.8 °F 57% 30.05 in 10.0 mi South 10.4 mph - N/A   Clear
2:15 PM 70.9 °F 55.8 °F 59% 30.05 in 10.0 mi SSW 9.2 mph - N/A   Clear
2:35 PM 70.9 °F 56.1 °F 59% 30.06 in 10.0 mi South 12.7 mph - N/A   Clear
2:55 PM 70.0 °F 56.3 °F 62% 30.03 in 10.0 mi SSE 10.4 mph - N/A   Clear
3:15 PM 69.4 °F 56.7 °F 64% 30.05 in 10.0 mi Calm Calm - N/A Rain Light Rain
3:35 PM 68.9 °F 57.4 °F 67% 29.98 in 7.0 mi SE 20.7 mph 35.7 mph N/A Rain Light Rain
3:55 PM 69.8 °F 57.4 °F 65% 30.03 in 10.0 mi Calm Calm - N/A   Scattered Clouds
4:15 PM 69.6 °F 58.5 °F 68% 30.03 in 10.0 mi NNW 8.1 mph - N/A   Light Drizzle
4:35 PM 69.1 °F 58.1 °F 68% 30.01 in 10.0 mi East 6.9 mph - N/A   Clear
4:55 PM 69.8 °F 59.2 °F 69% 30.00 in 10.0 mi SE 10.4 mph - N/A   Clear
5:15 PM 74.1 °F 59.0 °F 59% 30.00 in 10.0 mi SE 9.2 mph - N/A   Clear
5:35 PM 75.4 °F 58.5 °F 56% 29.99 in 10.0 mi SSE 10.4 mph - N/A   Clear
5:55 PM 77.4 °F 56.3 °F 48% 29.99 in 10.0 mi South 15.0 mph - N/A   Clear
6:15 PM 78.6 °F 54.7 °F 43% 29.99 in 10.0 mi SSE 13.8 mph - N/A   Clear
6:35 PM 76.6 °F 54.3 °F 46% 29.99 in 10.0 mi SE 10.4 mph - N/A   Clear
6:55 PM 74.5 °F 54.0 °F 49% 29.99 in 10.0 mi SE 8.1 mph - N/A   Clear
7:15 PM 72.0 °F 57.0 °F 59% 29.99 in 10.0 mi East 11.5 mph - N/A   Clear
7:35 PM 70.3 °F 57.2 °F 63% 29.99 in 10.0 mi ESE 9.2 mph - N/A   Clear
7:55 PM 70.2 °F 56.3 °F 61% 29.98 in 10.0 mi SE 10.4 mph - N/A   Clear
8:15 PM 70.0 °F 55.6 °F 60% 29.98 in 10.0 mi SE 12.7 mph - N/A   Clear
8:35 PM 68.5 °F 54.5 °F 61% 29.97 in 10.0 mi SE 15.0 mph - N/A   Clear
8:55 PM 67.5 °F 55.6 °F 66% 29.97 in 10.0 mi SE 18.4 mph 24.2 mph N/A   Clear
9:15 PM 67.1 °F 51.6 °F 57% 29.97 in 10.0 mi SSE 18.4 mph 24.2 mph N/A   Clear
9:35 PM 66.2 °F 49.5 °F 55% 29.97 in 10.0 mi SSE 18.4 mph 25.3 mph N/A   Clear
9:55 PM 65.8 °F 48.7 °F 54% 29.98 in 10.0 mi SE 11.5 mph - N/A   Clear
10:15 PM 66.2 °F 51.1 °F 58% 30.00 in 10.0 mi SE 15.0 mph 18.4 mph N/A   Clear
10:35 PM 65.3 °F 54.5 °F 68% 30.02 in 10.0 mi SSE 11.5 mph - N/A   Clear
10:55 PM 64.9 °F 54.5 °F 69% 30.02 in 10.0 mi SSE 8.1 mph - N/A   Clear
11:15 PM 64.4 °F 54.9 °F 71% 30.02 in 10.0 mi SSE 5.8 mph - N/A   Clear
11:55 PM 63.1 °F 55.6 °F 76% 30.01 in 10.0 mi SE 12.7 mph - N/A   Clear